Zurück zum Katalog

STARLINK-5465

AktivKommunikationVLEO
NORAD 54775·PAYLOAD·🇺🇸 United States

Gestartet Dec 17, 2022 von Cape Canaveral Space Force Station

Loading…

Nächste Überflüge (nächste 24 Stunden)

TLE

AktuellSource: CelesTrak SupGP

Epoche: Sep 14, 2026, 22:28 UTC

1 54775C 22175T   26257.93659722  .00045866  00000+0  13552-2 0  2573
2 54775  53.1566 263.6575 0001291  93.5836 327.1700 15.34364535    17

Verfolge STARLINK-5465 in Echtzeit mit AllMySat

Download on the App Store